Pagina principale
METAR-TAF:

METAR-TAF

Aeroporti :

Foggia, Italia

Aeroporto di Foggia

latitudine: 41-25-58N, longitudine: 015-32-06E, altezza: 81 m

Osservazione

Il bollettino è stato emesso 4 ore e 49 minuti fa, alle 15:50 UTC
Vento 18 kt da ovest/sud-ovest
Temperature 28°C
Umidità 35%
Pressione 1004 hPa
Visibilità 10 km o più
Nubi sparse ad un'altezza di 3000 ft

METAR: LIBF 251550Z 24018KT 9999 SCT030 28/11 Q1004

Ora: 22:39 (20:39 UTC)


TAF: mancante

Osservazioni e previsioni meteorologiche di più di 4000 aeroporti (messaggi METAR e TAF).

Le stazioni disponibili sono rappresentate dai dischi gialli e rossi sulla carta.

Puntare il mouse per vedere il nome della stazione.

Clicca sopra per visualizzare le osservazioni e previsioni meteorologiche.

Per cambiare la mappa : fare clic sui pulsanti verdi con una croce nera per ingrandire, il pulsante verde con un trattino per diminuire, o sulla freccia verde per le mappe adiacenti.


METAR-TAF: